DW3201 Weather Reports


time (UTC)temp
C
wind
direction
speed
KPH
gust
KPH
rain 1hr
cm
rain 24hr
cm
rain mn
cm
humidity
%
barometer
mb
20260901013121 24 0 0.0 0.0 0.00 0.25 0.25 89 1012.7
20260901011602 25 0 0.0 0.0 0.00 0.25 0.25 88 1012.6
20260901010115 25 0 0.0 0.0 0.00 0.25 0.25 86 1012.4
20260901004604 26 0 0.0 1.6 0.00 0.25 0.25 84 1012.3
20260901003102 26 0 0.0 0.0 0.00 0.25 0.25 83 1012.2
20260901001606 26 0 0.0 0.0 0.00 0.25 0.25 82 1012.2
20260901000058 26 0 0.0 1.6 0.00 0.25 0.25 81 1012.2
20260831234600 27 0 0.0 1.6 0.00 0.25 0.25 78 1012.1
20260831233100 27 0 0.0 1.6 0.00 0.25 0.25 76 1011.9
20260831231609 27 278 1.6 3.2 0.00 0.25 0.25 75 1011.8
20260831230105 28 277 0.0 4.8 0.00 0.25 0.25 74 1011.8
20260831224635 28 233 3.2 9.7 0.00 0.25 0.25 72 1012.0
20260831223059 28 277 4.8 9.7 0.00 0.25 0.25 71 1011.7
20260831221620 28 269 6.4 12.9 0.00 0.25 0.25 70 1011.7
20260831220107 28 262 4.8 16.1 0.00 0.25 0.25 71 1011.9
20260831214604 28 311 3.2 8.0 0.00 0.30 0.25 71 1011.7
20260831213101 28 256 4.8 9.7 0.00 0.30 0.25 73 1011.9
20260831211607 28 239 3.2 9.7 0.00 0.30 0.25 71 1012.0
20260831210103 28 274 1.6 4.8 0.00 0.30 0.25 74 1011.9
20260831204559 27 0 0.0 1.6 0.00 0.43 0.25 75 1011.5
20260831203058 27 0 0.0 0.0 0.00 0.43 0.25 76 1011.3
20260831201600 27 0 0.0 3.2 0.00 0.43 0.25 74 1011.3
20260831200100 27 263 3.2 6.4 0.00 0.43 0.25 73 1011.9
20260831194620 28 270 0.0 1.6 0.00 0.48 0.25 72 1011.8
20260831193100 28 0 1.6 4.8 0.00 0.48 0.25 70 1011.7
20260831191559 28 251 4.8 8.0 0.00 0.48 0.25 68 1011.8
20260831190119 28 260 6.4 11.3 0.00 0.48 0.25 66 1011.9
20260831184603 29 276 6.4 12.9 0.00 0.66 0.25 63 1011.7
20260831183108 28 264 6.4 16.1 0.00 0.66 0.25 63 1011.9
20260831181600 28 255 9.7 16.1 0.00 0.66 0.25 63 1012.0
20260831180100 29 280 6.4 16.1 0.00 0.66 0.25 62 1012.0
20260831174610 29 283 3.2 9.7 0.00 0.66 0.25 65 1011.8
20260831173102 28 274 4.8 12.9 0.00 0.66 0.25 67 1012.1
20260831171605 27 285 4.8 9.7 0.00 0.66 0.25 69 1012.3
20260831170106 27 284 1.6 8.0 0.00 0.66 0.25 71 1012.4
20260831164607 27 291 4.8 9.7 0.00 0.66 0.25 70 1012.5
20260831163100 27 281 4.8 12.9 0.00 0.66 0.25 71 1012.6
20260831161601 26 278 3.2 8.0 0.00 0.66 0.25 70 1012.5
20260831154630 26 277 3.2 8.0 0.00 0.66 0.25 71 1012.4
20260831153104 25 257 3.2 6.4 0.00 0.66 0.25 73 1012.5
20260831151612 25 285 3.2 9.7 0.00 0.66 0.25 73 1012.7
20260831150056 25 267 3.2 6.4 0.00 0.66 0.25 76 1012.5
20260831144602 24 248 1.6 3.2 0.00 0.66 0.25 79 1012.5
20260831143108 23 0 1.6 3.2 0.00 0.66 0.25 82 1012.5
20260831141559 23 287 0.0 3.2 0.00 0.66 0.25 83 1012.5
20260831140109 23 323 0.0 3.2 0.00 0.66 0.25 82 1012.4
20260831134603 22 44 0.0 8.0 0.00 0.66 0.25 82 1012.4
20260831133059 22 72 0.0 4.8 0.00 0.66 0.25 82 1012.4
20260831131610 22 75 0.0 4.8 0.00 0.66 0.25 84 1012.1
20260831130121 22 60 0.0 4.8 0.00 0.66 0.25 85 1012.2
20260831124603 22 0 0.0 3.2 0.00 0.66 0.25 86 1012.2
20260831123109 21 32 0.0 3.2 0.00 0.66 0.25 89 1012.5
20260831121615 21 20 0.0 3.2 0.00 0.66 0.25 90 1012.5
20260831120101 21 43 0.0 4.8 0.00 0.66 0.25 91 1012.4
20260831114602 21 46 1.6 6.4 0.00 0.66 0.25 91 1012.2
20260831113103 21 71 0.0 3.2 0.00 0.66 0.25 91 1012.5
20260831111605 21 0 1.6 4.8 0.00 0.66 0.25 91 1012.5
20260831110107 21 107 3.2 8.0 0.18 0.66 0.25 91 1012.6
20260831104604 21 123 6.4 14.5 0.20 0.69 0.25 92 1012.6
20260831103103 21 101 8.0 11.3 0.25 0.69 0.25 94 1012.8
20260831101604 21 0 0.0 3.2 0.25 0.69 0.25 94 1012.9
20260831100107 21 0 0.0 1.6 0.08 0.51 0.08 93 1013.0
20260831094632 21 69 3.2 6.4 0.05 0.56 0.05 93 1012.7
20260831093101 21 0 0.0 1.6 0.00 0.51 0.00 93 1012.8
20260831091617 21 0 0.0 0.0 0.00 0.51 0.00 93 1012.5
20260831084616 21 0 0.0 0.0 0.00 1.52 0.00 93 1012.8
20260831083102 21 0 0.0 1.6 0.00 1.52 0.00 94 1012.8
20260831081602 20 0 0.0 1.6 0.00 1.52 0.00 94 1012.7
20260831080100 21 0 0.0 3.2 0.00 1.52 0.00 93 1012.7
20260831074605 21 83 1.6 4.8 0.00 1.52 0.00 93 1012.9
20260831073102 20 79 0.0 3.2 0.00 1.52 0.00 94 1013.1
20260831071615 21 82 1.6 3.2 0.00 1.52 0.00 94 1013.4
20260831070104 20 73 0.0 3.2 0.00 1.52 0.00 94 1013.6
20260831064615 20 0 0.0 0.0 0.00 1.52 0.00 93 1014.0
20260831063110 21 0 0.0 0.0 0.00 1.52 0.00 93 1014.0
20260831061601 21 0 0.0 1.6 0.00 1.52 0.00 93 1014.1
20260831060111 21 0 0.0 0.0 0.00 1.52 0.00 92 1014.1
20260831054605 21 0 0.0 1.6 0.00 1.52 0.00 92 1014.1
20260831053102 21 0 0.0 3.2 0.00 1.52 0.00 91 1013.9
20260831051614 21 68 0.0 1.6 0.00 1.52 0.00 92 1013.7
20260831050111 21 0 0.0 0.0 0.00 1.52 0.00 91 1013.8
20260831044605 21 0 0.0 0.0 0.00 1.52 1.52 91 1013.7
20260831043105 21 0 0.0 1.6 0.00 1.52 1.52 90 1013.6
20260831041600 22 0 0.0 1.6 0.00 1.52 1.52 90 1013.5
20260831040101 22 45 0.0 1.6 0.00 1.52 1.52 90 1013.4
20260831034601 22 0 0.0 1.6 0.00 1.52 1.52 89 1013.5
20260831033059 22 70 1.6 6.4 0.00 1.52 1.52 90 1013.0
20260831031558 22 72 0.0 1.6 0.00 1.52 1.52 89 1013.3
20260831030105 22 0 0.0 1.6 0.00 1.52 1.52 88 1013.9
20260831024602 22 0 0.0 8.0 0.00 1.52 1.52 87 1014.1
20260831023110 22 283 3.2 9.7 0.00 1.52 1.52 87 1013.5
20260831021557 22 282 4.8 12.9 0.00 1.52 1.52 87 1014.0
20260831020115 22 239 4.8 11.3 0.00 1.52 1.52 87 1013.7
20260831014600 22 281 6.4 9.7 0.00 1.52 1.52 88 1013.8